Showing default

OV1-5, 2122

Orbit data source: Space-Track

OV1-5, 2122 is a payload satellite owned by USAF OAR (US) in LEO that was launched on Wed, 30 Mar 1966 UTC via an ATLAS D launch vehicle from the Air Force Western Test Range (AFWTR). Payload-class satellites include a variety of spacecraft equipped with specific instruments for various scientific and technological missions. These include communications satellites like Starlink; space stations such as the ISS; scientific satellites like the Hubble; Earth observation satellites from companies like Planet Labs, Umbra, and HawkEye 360; GPS; miniature CubeSats for education and research; and military/defense satellites.

Loading next visibility...
Identifier
2122, 1966-025B
Orbit
LEO
Country
Flag of USUS
Related business
Manufacturer
GD/Convair
Mission
Spacecraft
Bus & Motor
OV1, Unknown motor
Mass
114 kg wet, 114 kg dry
Launch date (UTC)
1966-03-30 (60 years ago)
Launch vehicle
ATLAS D
Launch site
Air Force Western Test Range (AFWTR)
Object type
Payload
Rocket body
Debris
Shape & HBR
Unknown
Radar Cross Section
Medium (>0.1 m² and <1 m²)

Expand to show TLE details & history
Last TLE update: 14 hours ago

TLE from 14 hours ago
0 OV1-5
1 02122U 66025B   25310.20363520  .00000363  00000-0  12671-3 0  9990
2 02122 144.6378 298.8446 0047267 172.5431 187.5943 13.66139123974600
Epoch: 2025-11-06T04:53Z
TLE epoch observation values (Epoch: 2025-11-06T04:53:14.081Z)
Latitude
-0.00001°
Longitude
179.87062°
Altitude
1,047.111 km
Speed
7.313 km/s
True Right ascension
19h 55m 22s
True Declination
0° 00' 00"
Sunlit
Object was in daylight at epoch
Visualization orbit readout
Latitude
Unknown
Longitude
Unknown
Altitude
Unknown
Speed
Unknown
Apparent Right ascension
Unknown
Apparent Declination
Unknown
Sunlit
N/A
Visualization observer readout
Local Sidereal Time
15:09:57
Azimuth
Unknown
Elevation
Unknown
Doppler factor
Unknown
Orbital elements
Apogee altitude
1,051.387 km
Perigee altitude
981.483 km
Semi-major axis
7,394.572 km
Eccentricity
0.00473
Inclination
144.6378°
RAAN
298.8446°
Arg. of periapsis
172.5431°
True anomaly
187.52313°
Mean anomaly
187.5943°
Eccentric anomaly
187.55868°
Mean motion
3.41329 °/min
Orbital period
105.47 mins
BSTAR
0.00012671
Loading maneuver chart data...
Computing Atmospheric mass density...
Loading historical data...
Loading historical data...
Loading historical data...
Loading historical data...
Loading historical data...
Loading historical data...
Loading historical data...

Documentation

Showing up to 5 results
|